Time,TemperatureF,DewpointF,PressureIn,WindDirection,WindDirectionDegrees,WindSpeedMPH,WindSpeedGustMPH,Humidity,HourlyPrecipIn,Conditions,Clouds,dailyrainin,SoftwareType,DateUTC
2013-01-31 00:00:00,53.6,52.5,29.26,SE,135,3.1,5.4,96,0.00,,,0.00,pywws,2013-01-31 05:00:00,
2013-01-31 00:01:00,53.6,52.5,29.26,SW,225,3.8,6.0,96,0.00,,,0.00,pywws,2013-01-31 05:01:00,
2013-01-31 00:03:00,53.8,52.7,29.26,South,180,1.6,3.1,96,0.00,,,0.00,pywws,2013-01-31 05:03:00,
2013-01-31 00:04:00,53.8,52.7,29.26,West,270,3.1,5.4,96,0.00,,,0.00,pywws,2013-01-31 05:04:00,
2013-01-31 00:10:00,54.0,52.8,29.25,SE,135,2.2,5.4,96,0.00,,,0.00,pywws,2013-01-31 05:10:00,
2013-01-31 00:15:00,54.0,52.8,29.25,SW,225,1.6,3.1,96,0.00,,,0.00,pywws,2013-01-31 05:15:00,
2013-01-31 00:21:00,54.0,52.8,29.24,SE,135,3.1,4.5,96,0.00,,,0.00,pywws,2013-01-31 05:21:00,
2013-01-31 00:27:00,54.1,53.0,29.24,SE,135,5.4,9.8,96,0.00,,,0.00,pywws,2013-01-31 05:27:00,
2013-01-31 00:32:00,54.5,53.4,29.23,South,180,3.1,3.8,96,0.01,,,0.01,pywws,2013-01-31 05:32:00,
2013-01-31 00:38:00,54.7,53.6,29.21,SE,135,4.5,6.0,96,0.01,,,0.01,pywws,2013-01-31 05:38:00,
2013-01-31 00:43:00,54.5,53.4,29.21,SE,135,2.2,3.8,96,0.02,,,0.02,pywws,2013-01-31 05:43:00,
2013-01-31 00:49:00,54.7,53.6,29.21,South,180,3.8,6.0,96,0.02,,,0.02,pywws,2013-01-31 05:49:00,
2013-01-31 00:55:00,54.9,53.7,29.21,South,180,3.8,5.4,96,0.04,,,0.04,pywws,2013-01-31 05:55:00,
2013-01-31 01:00:00,55.0,54.2,29.20,WSW,248,3.1,6.0,97,0.06,,,0.06,pywws,2013-01-31 06:00:00,
2013-01-31 01:06:00,55.0,54.2,29.19,South,180,3.8,6.0,97,0.06,,,0.06,pywws,2013-01-31 06:06:00,
2013-01-31 01:11:00,55.2,54.4,29.18,South,180,4.5,6.0,97,0.08,,,0.08,pywws,2013-01-31 06:11:00,
2013-01-31 01:17:00,55.4,54.3,29.18,South,180,1.6,3.1,96,0.12,,,0.12,pywws,2013-01-31 06:17:00,
2013-01-31 01:23:00,55.6,54.7,29.16,South,180,4.5,6.0,97,0.13,,,0.13,pywws,2013-01-31 06:23:00,
2013-01-31 01:28:00,55.6,54.7,29.16,ENE,68,5.4,9.2,97,0.12,,,0.13,pywws,2013-01-31 06:28:00,
2013-01-31 01:34:00,55.9,55.1,29.16,SW,225,4.5,6.9,97,0.13,,,0.14,pywws,2013-01-31 06:34:00,
2013-01-31 01:39:00,56.1,55.3,29.15,West,270,6.0,13.6,97,0.14,,,0.15,pywws,2013-01-31 06:39:00,
2013-01-31 01:45:00,56.1,55.3,29.13,South,180,3.8,5.4,97,0.13,,,0.15,pywws,2013-01-31 06:45:00,
2013-01-31 01:51:00,56.3,55.5,29.13,SE,135,5.4,7.6,97,0.13,,,0.15,pywws,2013-01-31 06:51:00,
2013-01-31 01:56:00,56.3,55.5,29.12,SE,135,3.8,6.9,97,0.12,,,0.15,pywws,2013-01-31 06:56:00,
2013-01-31 02:02:00,56.5,55.6,29.10,SE,135,3.1,4.5,97,0.11,,,0.17,pywws,2013-01-31 07:02:00,
2013-01-31 02:07:00,56.5,55.6,29.09,SW,225,4.5,6.9,97,0.12,,,0.18,pywws,2013-01-31 07:07:00,
2013-01-31 02:13:00,56.5,55.6,29.09,SE,135,4.5,6.9,97,0.11,,,0.18,pywws,2013-01-31 07:13:00,
2013-01-31 02:19:00,56.1,55.3,29.09,SE,135,4.5,6.9,97,0.06,,,0.18,pywws,2013-01-31 07:19:00,
2013-01-31 02:24:00,55.9,55.1,29.08,SE,135,3.8,6.0,97,0.06,,,0.19,pywws,2013-01-31 07:24:00,
2013-01-31 02:30:00,55.8,54.9,29.07,SE,135,3.8,6.9,97,0.06,,,0.19,pywws,2013-01-31 07:30:00,
2013-01-31 02:35:00,55.9,55.1,29.06,SE,135,3.1,4.5,97,0.06,,,0.20,pywws,2013-01-31 07:35:00,
2013-01-31 02:41:00,55.9,55.1,29.05,West,270,5.4,9.8,97,0.05,,,0.20,pywws,2013-01-31 07:41:00,
2013-01-31 02:47:00,55.9,54.8,29.04,South,180,4.5,8.3,96,0.06,,,0.21,pywws,2013-01-31 07:47:00,
2013-01-31 02:52:00,56.1,55.0,29.02,South,180,6.0,8.3,96,0.06,,,0.21,pywws,2013-01-31 07:52:00,
2013-01-31 02:58:00,56.3,55.2,29.03,South,180,4.5,8.3,96,0.07,,,0.22,pywws,2013-01-31 07:58:00,
2013-01-31 03:03:00,56.5,55.4,29.03,SE,135,3.8,6.9,96,0.06,,,0.22,pywws,2013-01-31 08:03:00,
2013-01-31 03:09:00,56.5,55.4,29.02,West,270,8.3,16.8,96,0.06,,,0.24,pywws,2013-01-31 08:09:00,
2013-01-31 03:15:00,56.8,55.7,29.00,South,180,8.3,13.0,96,0.07,,,0.25,pywws,2013-01-31 08:15:00,
2013-01-31 03:20:00,56.8,55.7,29.00,SE,135,11.4,15.9,96,0.08,,,0.26,pywws,2013-01-31 08:20:00,
2013-01-31 03:26:00,56.8,55.7,28.98,SE,135,4.5,7.6,96,0.09,,,0.28,pywws,2013-01-31 08:26:00,
2013-01-31 03:31:00,56.8,55.7,28.99,SW,225,4.5,7.6,96,0.12,,,0.31,pywws,2013-01-31 08:31:00,
2013-01-31 03:37:00,56.5,55.1,28.97,SE,135,4.5,9.8,95,0.13,,,0.33,pywws,2013-01-31 08:37:00,
2013-01-31 03:43:00,56.3,54.9,28.97,SW,225,5.4,9.2,95,0.15,,,0.35,pywws,2013-01-31 08:43:00,
2013-01-31 03:48:00,56.3,54.9,28.97,SW,225,3.8,6.0,95,0.18,,,0.39,pywws,2013-01-31 08:48:00,
2013-01-31 03:54:00,56.3,54.9,28.95,SE,135,9.8,18.3,95,0.20,,,0.43,pywws,2013-01-31 08:54:00,
2013-01-31 03:59:00,56.1,54.7,28.95,SE,135,6.9,9.2,95,0.22,,,0.45,pywws,2013-01-31 08:59:00,
2013-01-31 04:05:00,56.1,54.7,28.96,SW,225,8.3,9.8,95,0.22,,,0.46,pywws,2013-01-31 09:05:00,
2013-01-31 04:11:00,56.1,54.7,29.02,NW,315,5.4,8.3,95,0.28,,,0.52,pywws,2013-01-31 09:11:00,
2013-01-31 04:16:00,55.9,54.5,29.03,South,180,6.9,11.4,95,0.46,,,0.71,pywws,2013-01-31 09:16:00,
2013-01-31 04:22:00,55.6,54.2,29.03,North,0,2.2,6.0,95,0.47,,,0.73,pywws,2013-01-31 09:22:00,
2013-01-31 04:27:00,55.4,54.0,29.02,South,180,0.7,2.2,95,0.47,,,0.74,pywws,2013-01-31 09:27:00,
2013-01-31 04:33:00,55.6,54.2,29.02,SW,225,2.2,3.8,95,0.46,,,0.76,pywws,2013-01-31 09:33:00,
2013-01-31 04:39:00,55.8,54.6,29.03,West,270,2.2,3.8,96,0.41,,,0.76,pywws,2013-01-31 09:39:00,
2013-01-31 04:44:00,55.9,54.8,29.02,South,180,3.1,3.8,96,0.39,,,0.77,pywws,2013-01-31 09:44:00,
2013-01-31 04:50:00,56.1,55.0,29.01,South,180,2.2,3.8,96,0.38,,,0.78,pywws,2013-01-31 09:50:00,
2013-01-31 04:55:00,55.8,54.6,29.00,SW,225,2.2,5.4,96,0.35,,,0.79,pywws,2013-01-31 09:55:00,
2013-01-31 05:01:00,55.9,54.8,29.00,NE,45,1.6,2.2,96,0.35,,,0.80,pywws,2013-01-31 10:01:00,
2013-01-31 05:07:00,55.9,54.8,29.01,West,270,1.6,3.1,96,0.34,,,0.80,pywws,2013-01-31 10:07:00,
2013-01-31 05:12:00,55.9,54.8,29.00,South,180,2.2,3.8,96,0.32,,,0.81,pywws,2013-01-31 10:12:00,
2013-01-31 05:18:00,55.9,54.8,28.98,SE,135,2.2,4.5,96,0.11,,,0.81,pywws,2013-01-31 10:18:00,
2013-01-31 05:23:00,55.4,54.3,28.99,SE,135,2.2,3.8,96,0.08,,,0.83,pywws,2013-01-31 10:23:00,
2013-01-31 05:29:00,55.2,54.1,28.98,South,180,2.2,3.8,96,0.09,,,0.84,pywws,2013-01-31 10:29:00,
2013-01-31 05:35:00,55.2,54.1,28.98,SE,135,3.1,3.8,96,0.08,,,0.84,pywws,2013-01-31 10:35:00,
2013-01-31 05:40:00,54.9,53.7,28.98,West,270,2.2,4.5,96,0.08,,,0.84,pywws,2013-01-31 10:40:00,
2013-01-31 05:46:00,54.7,53.3,28.96,West,270,1.6,3.1,95,0.07,,,0.84,pywws,2013-01-31 10:46:00,
2013-01-31 05:51:00,54.5,53.1,28.95,West,270,0.7,1.6,95,0.06,,,0.84,pywws,2013-01-31 10:51:00,
2013-01-31 05:57:00,54.1,52.7,28.95,SW,225,0.7,3.1,95,0.05,,,0.84,pywws,2013-01-31 10:57:00,
2013-01-31 06:03:00,54.0,52.6,28.96,SE,135,1.6,3.1,95,0.04,,,0.84,pywws,2013-01-31 11:03:00,
2013-01-31 06:08:00,54.0,52.6,28.95,South,180,2.2,3.8,95,0.04,,,0.84,pywws,2013-01-31 11:08:00,
2013-01-31 06:14:00,54.0,52.6,28.95,SW,225,1.6,3.1,95,0.02,,,0.84,pywws,2013-01-31 11:14:00,
2013-01-31 06:19:00,54.1,52.7,28.95,South,180,1.6,2.2,95,0.02,,,0.84,pywws,2013-01-31 11:19:00,
2013-01-31 06:25:00,54.0,52.3,28.97,South,180,2.2,3.1,94,0.01,,,0.84,pywws,2013-01-31 11:25:00,
2013-01-31 06:31:00,54.0,52.3,28.96,North,-999,0.0,1.6,94,0.01,,,0.85,pywws,2013-01-31 11:31:00,
2013-01-31 06:36:00,54.1,52.5,28.96,South,180,2.2,3.8,94,0.04,,,0.87,pywws,2013-01-31 11:36:00,
2013-01-31 06:42:00,54.3,52.9,28.96,WSW,248,3.8,6.0,95,0.07,,,0.91,pywws,2013-01-31 11:42:00,
2013-01-31 06:47:00,54.3,52.6,28.96,West,270,3.1,5.4,94,0.08,,,0.92,pywws,2013-01-31 11:47:00,
2013-01-31 06:53:00,53.6,51.9,28.98,NW,315,8.3,16.8,94,0.08,,,0.92,pywws,2013-01-31 11:53:00,
2013-01-31 06:59:00,51.8,49.3,28.99,North,0,3.1,6.0,91,0.09,,,0.93,pywws,2013-01-31 11:59:00,
2013-01-31 07:04:00,51.4,48.9,29.01,NE,45,5.4,7.6,91,0.09,,,0.93,pywws,2013-01-31 12:04:00,
2013-01-31 07:10:00,49.3,44.7,29.01,WNW,292,2.2,5.4,84,0.09,,,0.93,pywws,2013-01-31 12:10:00,
2013-01-31 07:15:00,48.4,42.8,29.02,North,0,3.8,5.4,81,0.09,,,0.93,pywws,2013-01-31 12:15:00,
2013-01-31 07:21:00,47.8,41.3,29.04,SE,135,3.1,3.8,78,0.09,,,0.93,pywws,2013-01-31 12:21:00,
2013-01-31 07:27:00,47.5,40.0,29.04,WSW,248,4.5,6.0,75,0.09,,,0.93,pywws,2013-01-31 12:27:00,
2013-01-31 07:32:00,47.1,39.6,29.05,North,0,3.1,6.9,75,0.08,,,0.93,pywws,2013-01-31 12:32:00,
2013-01-31 07:38:00,46.8,38.6,29.05,SW,225,3.8,5.4,73,0.06,,,0.93,pywws,2013-01-31 12:38:00,
2013-01-31 07:43:00,46.4,37.9,29.05,North,0,2.2,3.8,72,0.01,,,0.93,pywws,2013-01-31 12:43:00,
2013-01-31 07:49:00,46.4,36.8,29.06,North,0,3.8,7.6,69,0.01,,,0.93,pywws,2013-01-31 12:49:00,
2013-01-31 07:55:00,46.6,36.2,29.06,SW,225,4.5,6.0,67,0.00,,,0.93,pywws,2013-01-31 12:55:00,
2013-01-31 08:00:00,46.6,35.8,29.07,South,180,6.9,12.1,66,0.00,,,0.93,pywws,2013-01-31 13:00:00,
2013-01-31 08:06:00,46.6,35.1,29.07,SW,225,3.8,6.0,64,0.00,,,0.93,pywws,2013-01-31 13:06:00,
2013-01-31 08:11:00,46.2,34.3,29.08,West,270,4.5,7.6,63,0.00,,,0.93,pywws,2013-01-31 13:11:00,
2013-01-31 08:17:00,45.9,34.0,29.08,SW,225,5.4,10.7,63,0.00,,,0.93,pywws,2013-01-31 13:17:00,
2013-01-31 08:23:00,45.3,33.9,29.09,South,180,3.1,5.4,64,0.00,,,0.93,pywws,2013-01-31 13:23:00,
2013-01-31 08:28:00,45.0,33.1,29.10,West,270,5.4,9.2,63,0.00,,,0.93,pywws,2013-01-31 13:28:00,
2013-01-31 08:34:00,45.0,32.7,29.10,NW,315,5.4,6.9,62,0.00,,,0.93,pywws,2013-01-31 13:34:00,
2013-01-31 08:39:00,44.6,32.0,29.12,West,270,5.4,7.6,61,0.00,,,0.93,pywws,2013-01-31 13:39:00,
2013-01-31 08:45:00,44.4,32.6,29.13,NW,315,3.8,7.6,63,0.00,,,0.93,pywws,2013-01-31 13:45:00,
2013-01-31 08:51:00,44.4,32.6,29.14,West,270,3.8,5.4,63,0.00,,,0.93,pywws,2013-01-31 13:51:00,
2013-01-31 08:56:00,44.4,32.6,29.15,South,180,3.8,7.6,63,0.00,,,0.93,pywws,2013-01-31 13:56:00,
2013-01-31 09:02:00,44.4,32.6,29.15,South,180,4.5,9.2,63,0.00,,,0.93,pywws,2013-01-31 14:02:00,
2013-01-31 09:07:00,44.1,32.3,29.15,West,270,3.8,5.4,63,0.00,,,0.93,pywws,2013-01-31 14:07:00,
2013-01-31 09:13:00,43.7,31.9,29.16,NE,45,3.1,5.4,63,0.00,,,0.93,pywws,2013-01-31 14:13:00,
2013-01-31 09:19:00,43.7,31.5,29.16,North,0,5.4,8.3,62,0.00,,,0.93,pywws,2013-01-31 14:19:00,
2013-01-31 09:24:00,43.5,31.8,29.17,North,0,6.0,12.1,63,0.00,,,0.93,pywws,2013-01-31 14:24:00,
2013-01-31 09:30:00,43.3,31.2,29.18,North,0,4.5,6.0,62,0.00,,,0.93,pywws,2013-01-31 14:30:00,
2013-01-31 09:35:00,43.3,31.2,29.20,SW,225,7.6,9.8,62,0.00,,,0.93,pywws,2013-01-31 14:35:00,
2013-01-31 09:41:00,43.2,29.8,29.19,NW,315,3.1,6.0,59,0.00,,,0.93,pywws,2013-01-31 14:41:00,
2013-01-31 09:47:00,43.5,29.7,29.20,WNW,292,5.4,8.3,58,0.00,,,0.93,pywws,2013-01-31 14:47:00,
2013-01-31 09:52:00,43.2,29.0,29.20,NW,315,3.8,6.0,57,0.00,,,0.93,pywws,2013-01-31 14:52:00,
2013-01-31 09:58:00,42.8,29.5,29.22,West,270,3.8,8.3,59,0.00,,,0.93,pywws,2013-01-31 14:58:00,
2013-01-31 10:03:00,44.2,30.4,29.22,West,270,5.4,10.7,58,0.00,,,0.93,pywws,2013-01-31 15:03:00,
2013-01-31 10:09:00,43.5,27.5,29.23,NNE,22,6.9,15.9,53,0.00,,,0.93,pywws,2013-01-31 15:09:00,
2013-01-31 10:15:00,42.6,26.7,29.23,SW,225,5.4,8.3,53,0.00,,,0.93,pywws,2013-01-31 15:15:00,
2013-01-31 10:20:00,42.3,26.8,29.24,NW,315,6.0,15.9,54,0.00,,,0.93,pywws,2013-01-31 15:20:00,
2013-01-31 10:26:00,42.3,26.8,29.25,NW,315,5.4,13.0,54,0.00,,,0.93,pywws,2013-01-31 15:26:00,
2013-01-31 10:31:00,42.8,28.2,29.25,NW,315,3.1,6.0,56,0.00,,,0.93,pywws,2013-01-31 15:31:00,
2013-01-31 10:37:00,43.3,28.3,29.25,SW,225,4.5,7.6,55,0.00,,,0.93,pywws,2013-01-31 15:37:00,
2013-01-31 10:43:00,43.0,26.1,29.25,West,270,4.5,8.3,51,0.00,,,0.93,pywws,2013-01-31 15:43:00,
2013-01-31 10:48:00,42.3,25.0,29.26,NW,315,3.8,6.0,50,0.00,,,0.93,pywws,2013-01-31 15:48:00,
2013-01-31 10:54:00,42.3,25.0,29.26,West,270,4.5,6.9,50,0.00,,,0.93,pywws,2013-01-31 15:54:00,
2013-01-31 10:59:00,42.1,25.3,29.25,West,270,5.4,10.7,51,0.00,,,0.93,pywws,2013-01-31 15:59:00,
2013-01-31 11:05:00,42.1,24.8,29.25,North,0,3.8,6.0,50,0.00,,,0.93,pywws,2013-01-31 16:05:00,
2013-01-31 11:11:00,42.3,26.4,29.25,North,0,4.5,7.6,53,0.00,,,0.93,pywws,2013-01-31 16:11:00,
2013-01-31 11:16:00,42.3,24.5,29.26,NE,45,6.0,11.4,49,0.00,,,0.93,pywws,2013-01-31 16:16:00,
2013-01-31 11:22:00,42.6,25.8,29.26,NW,315,3.8,8.3,51,0.00,,,0.93,pywws,2013-01-31 16:22:00,
2013-01-31 11:27:00,42.3,25.9,29.27,North,0,4.5,7.6,52,0.00,,,0.93,pywws,2013-01-31 16:27:00,
2013-01-31 11:33:00,42.1,26.2,29.27,NW,315,3.1,5.4,53,0.00,,,0.93,pywws,2013-01-31 16:33:00,
2013-01-31 11:39:00,41.9,25.6,29.28,NW,315,4.5,6.9,52,0.00,,,0.93,pywws,2013-01-31 16:39:00,
2013-01-31 11:44:00,41.9,25.1,29.27,West,270,6.9,8.3,51,0.00,,,0.93,pywws,2013-01-31 16:44:00,
2013-01-31 11:50:00,41.7,24.5,29.27,West,270,5.4,6.9,50,0.00,,,0.93,pywws,2013-01-31 16:50:00,
2013-01-31 11:55:00,41.5,25.7,29.28,North,0,6.9,11.4,53,0.00,,,0.93,pywws,2013-01-31 16:55:00,
2013-01-31 12:01:00,41.7,25.9,29.28,SW,225,5.4,7.6,53,0.00,,,0.93,pywws,2013-01-31 17:01:00,
2013-01-31 12:07:00,41.7,26.8,29.28,SW,225,2.2,3.1,55,0.00,,,0.93,pywws,2013-01-31 17:07:00,
2013-01-31 12:12:00,42.1,26.2,29.28,North,0,2.2,3.1,53,0.00,,,0.93,pywws,2013-01-31 17:12:00,
2013-01-31 12:18:00,42.1,26.6,29.29,NW,315,3.1,3.8,54,0.00,,,0.93,pywws,2013-01-31 17:18:00,
2013-01-31 12:23:00,42.3,25.9,29.28,NW,315,5.4,9.2,52,0.00,,,0.93,pywws,2013-01-31 17:23:00,
2013-01-31 12:29:00,42.3,25.4,29.28,North,0,1.6,3.8,51,0.00,,,0.93,pywws,2013-01-31 17:29:00,
2013-01-31 12:35:00,41.7,24.0,29.28,NW,315,4.5,9.8,49,0.00,,,0.93,pywws,2013-01-31 17:35:00,
2013-01-31 12:40:00,43.3,25.0,29.28,NW,315,4.5,6.9,48,0.00,,,0.93,pywws,2013-01-31 17:40:00,
2013-01-31 12:46:00,45.0,23.3,29.28,NNW,338,3.8,6.0,42,0.00,,,0.93,pywws,2013-01-31 17:46:00,
2013-01-31 12:51:00,48.0,26.6,29.28,SE,135,5.4,10.7,43,0.00,,,0.93,pywws,2013-01-31 17:51:00,
2013-01-31 12:57:00,48.4,24.0,29.29,East,90,5.4,7.6,38,0.00,,,0.93,pywws,2013-01-31 17:57:00,
2013-01-31 13:03:00,48.7,21.6,29.29,West,270,9.2,13.0,34,0.00,,,0.93,pywws,2013-01-31 18:03:00,
2013-01-31 13:08:00,47.5,17.6,29.29,NW,315,6.0,10.7,30,0.00,,,0.93,pywws,2013-01-31 18:08:00,
2013-01-31 13:14:00,46.0,16.4,29.29,NW,315,5.4,11.4,30,0.00,,,0.93,pywws,2013-01-31 18:14:00,
2013-01-31 13:19:00,47.7,18.5,29.30,NE,45,4.5,9.2,31,0.00,,,0.93,pywws,2013-01-31 18:19:00,
2013-01-31 13:25:00,47.1,18.8,29.28,North,0,5.4,10.7,32,0.00,,,0.93,pywws,2013-01-31 18:25:00,
2013-01-31 13:31:00,48.2,19.7,29.29,West,270,5.4,8.3,32,0.00,,,0.93,pywws,2013-01-31 18:31:00,
2013-01-31 13:36:00,47.5,16.0,29.30,North,0,6.0,10.7,28,0.00,,,0.93,pywws,2013-01-31 18:36:00,
2013-01-31 13:42:00,47.5,17.6,29.30,North,0,5.4,7.6,30,0.00,,,0.93,pywws,2013-01-31 18:42:00,
2013-01-31 13:47:00,46.8,17.0,29.31,West,270,6.9,9.8,30,0.00,,,0.93,pywws,2013-01-31 18:47:00,
2013-01-31 13:53:00,45.3,11.6,29.31,NW,315,4.5,6.9,25,0.00,,,0.93,pywws,2013-01-31 18:53:00,
2013-01-31 13:59:00,45.0,16.2,29.31,North,0,5.4,8.3,31,0.00,,,0.93,pywws,2013-01-31 18:59:00,
2013-01-31 14:04:00,45.0,12.2,29.31,NW,315,4.5,6.0,26,0.00,,,0.93,pywws,2013-01-31 19:04:00,
2013-01-31 14:10:00,46.0,14.0,29.32,SW,225,4.5,7.6,27,0.00,,,0.93,pywws,2013-01-31 19:10:00,
2013-01-31 14:15:00,47.3,19.0,29.32,NW,315,2.2,4.5,32,0.00,,,0.93,pywws,2013-01-31 19:15:00,
2013-01-31 14:21:00,48.0,18.1,29.33,NW,315,4.5,7.6,30,0.00,,,0.93,pywws,2013-01-31 19:21:00,
2013-01-31 14:27:00,45.3,15.7,29.33,NW,315,3.8,6.0,30,0.00,,,0.93,pywws,2013-01-31 19:27:00,
2013-01-31 14:32:00,44.8,13.7,29.34,North,0,6.0,11.4,28,0.00,,,0.93,pywws,2013-01-31 19:32:00,
2013-01-31 14:38:00,44.1,11.4,29.34,West,270,6.9,9.8,26,0.00,,,0.93,pywws,2013-01-31 19:38:00,
2013-01-31 14:43:00,43.9,13.7,29.35,West,270,6.9,9.8,29,0.00,,,0.93,pywws,2013-01-31 19:43:00,
2013-01-31 14:49:00,42.8,13.5,29.35,West,270,3.8,6.9,30,0.00,,,0.93,pywws,2013-01-31 19:49:00,
2013-01-31 14:55:00,43.5,15.6,29.35,SW,225,6.0,13.0,32,0.00,,,0.93,pywws,2013-01-31 19:55:00,
2013-01-31 15:00:00,44.4,16.4,29.36,WNW,292,7.6,15.9,32,0.00,,,0.93,pywws,2013-01-31 20:00:00,
2013-01-31 15:06:00,44.2,11.6,29.36,SW,225,7.6,12.1,26,0.00,,,0.93,pywws,2013-01-31 20:06:00,
2013-01-31 15:11:00,43.5,11.8,29.36,North,0,8.3,13.6,27,0.00,,,0.93,pywws,2013-01-31 20:11:00,
2013-01-31 15:17:00,43.3,11.6,29.37,West,270,9.2,21.2,27,0.00,,,0.93,pywws,2013-01-31 20:17:00,
2013-01-31 15:23:00,42.8,12.0,29.36,South,180,8.3,13.0,28,0.00,,,0.93,pywws,2013-01-31 20:23:00,
2013-01-31 15:28:00,42.6,12.6,29.36,West,270,4.5,6.9,29,0.00,,,0.93,pywws,2013-01-31 20:28:00,
2013-01-31 15:34:00,42.1,12.9,29.37,NW,315,4.5,6.9,30,0.00,,,0.93,pywws,2013-01-31 20:34:00,
2013-01-31 15:39:00,41.7,11.8,29.38,NW,315,4.5,6.9,29,0.00,,,0.93,pywws,2013-01-31 20:39:00,
2013-01-31 15:45:00,41.7,9.4,29.39,North,0,4.5,6.9,26,0.00,,,0.93,pywws,2013-01-31 20:45:00,
2013-01-31 15:51:00,41.0,8.8,29.39,NW,315,4.5,7.6,26,0.00,,,0.93,pywws,2013-01-31 20:51:00,
2013-01-31 15:56:00,39.2,8.1,29.39,West,270,6.9,10.7,27,0.00,,,0.93,pywws,2013-01-31 20:56:00,
2013-01-31 16:02:00,38.5,10.5,29.40,SW,225,3.1,6.0,31,0.00,,,0.93,pywws,2013-01-31 21:02:00,
2013-01-31 16:07:00,38.5,11.2,29.40,WNW,292,3.8,5.4,32,0.00,,,0.93,pywws,2013-01-31 21:07:00,
2013-01-31 16:13:00,38.3,10.3,29.41,North,0,6.0,10.7,31,0.00,,,0.93,pywws,2013-01-31 21:13:00,
2013-01-31 16:19:00,37.8,13.9,29.41,SW,225,7.6,12.1,37,0.00,,,0.93,pywws,2013-01-31 21:19:00,
2013-01-31 16:24:00,37.0,10.0,29.43,SE,135,6.9,9.8,32,0.00,,,0.93,pywws,2013-01-31 21:24:00,
2013-01-31 16:30:00,36.5,10.8,29.43,North,0,9.2,12.1,34,0.00,,,0.93,pywws,2013-01-31 21:30:00,
2013-01-31 16:35:00,36.3,11.3,29.43,NW,315,4.5,6.9,35,0.00,,,0.93,pywws,2013-01-31 21:35:00,
2013-01-31 16:41:00,36.1,11.8,29.44,West,270,5.4,10.7,36,0.00,,,0.93,pywws,2013-01-31 21:41:00,
2013-01-31 16:47:00,36.1,9.8,29.44,North,0,5.4,9.8,33,0.00,,,0.93,pywws,2013-01-31 21:47:00,
2013-01-31 16:52:00,36.1,11.2,29.43,North,0,9.8,15.2,35,0.00,,,0.93,pywws,2013-01-31 21:52:00,
2013-01-31 16:58:00,36.0,9.7,29.44,NE,45,4.5,5.4,33,0.00,,,0.93,pywws,2013-01-31 21:58:00,
2013-01-31 17:03:00,35.6,8.7,29.44,SE,135,2.2,4.5,32,0.00,,,0.93,pywws,2013-01-31 22:03:00,
2013-01-31 17:09:00,35.2,9.7,29.44,NW,315,7.6,13.0,34,0.00,,,0.93,pywws,2013-01-31 22:09:00,
2013-01-31 17:15:00,34.9,9.4,29.45,East,90,4.5,6.9,34,0.00,,,0.93,pywws,2013-01-31 22:15:00,
2013-01-31 17:20:00,34.7,8.6,29.45,SW,225,7.6,13.0,33,0.00,,,0.93,pywws,2013-01-31 22:20:00,
2013-01-31 17:26:00,34.3,6.9,29.46,West,270,6.9,12.1,31,0.00,,,0.93,pywws,2013-01-31 22:26:00,
2013-01-31 17:31:00,34.2,6.0,29.46,SE,135,6.0,8.3,30,0.00,,,0.93,pywws,2013-01-31 22:31:00,
2013-01-31 17:37:00,34.0,4.3,29.47,SW,225,9.2,14.5,28,0.00,,,0.93,pywws,2013-01-31 22:37:00,
2013-01-31 17:43:00,33.8,4.9,29.48,North,0,9.2,14.5,29,0.00,,,0.93,pywws,2013-01-31 22:43:00,
2013-01-31 17:48:00,33.6,4.8,29.49,NW,315,6.9,10.7,29,0.00,,,0.93,pywws,2013-01-31 22:48:00,
2013-01-31 17:54:00,33.6,4.8,29.49,NW,315,6.0,8.3,29,0.00,,,0.93,pywws,2013-01-31 22:54:00,
2013-01-31 17:59:00,33.6,4.8,29.49,West,270,6.9,9.8,29,0.00,,,0.93,pywws,2013-01-31 22:59:00,
2013-01-31 18:05:00,33.3,5.9,29.49,North,-999,8.3,10.7,31,0.00,,,0.93,pywws,2013-01-31 23:05:00,
2013-01-31 18:11:00,33.3,5.2,29.50,NW,315,5.4,7.6,30,0.00,,,0.93,pywws,2013-01-31 23:11:00,
2013-01-31 18:16:00,33.1,7.1,29.51,North,0,5.4,8.3,33,0.00,,,0.93,pywws,2013-01-31 23:16:00,
2013-01-31 18:22:00,33.1,7.1,29.51,NW,315,4.5,9.2,33,0.00,,,0.93,pywws,2013-01-31 23:22:00,
2013-01-31 18:27:00,32.9,7.0,29.51,East,90,3.8,6.0,33,0.00,,,0.93,pywws,2013-01-31 23:27:00,
2013-01-31 18:33:00,32.5,7.3,29.52,NW,315,6.0,10.7,34,0.00,,,0.93,pywws,2013-01-31 23:33:00,
2013-01-31 18:39:00,32.5,8.0,29.52,NW,315,4.5,6.9,35,0.00,,,0.93,pywws,2013-01-31 23:39:00,
2013-01-31 18:44:00,32.4,7.8,29.52,NE,45,4.5,7.6,35,0.00,,,0.93,pywws,2013-01-31 23:44:00,
2013-01-31 18:50:00,32.2,7.0,29.53,NW,315,3.8,5.4,34,0.00,,,0.93,pywws,2013-01-31 23:50:00,
2013-01-31 18:55:00,32.2,7.0,29.53,North,0,4.5,7.6,34,0.00,,,0.93,pywws,2013-01-31 23:55:00,
2013-01-31 19:01:00,32.0,6.8,29.54,North,0,9.8,16.8,34,0.00,,,0.93,pywws,2013-02-01 00:01:00,
2013-01-31 19:07:00,31.8,8.5,29.54,NW,315,3.1,6.0,37,0.00,,,0.93,pywws,2013-02-01 00:07:00,
2013-01-31 19:12:00,31.8,7.3,29.54,North,0,6.0,10.7,35,0.00,,,0.93,pywws,2013-02-01 00:12:00,
2013-01-31 19:18:00,31.5,8.2,29.54,SW,225,7.6,11.4,37,0.00,,,0.93,pywws,2013-02-01 00:18:00,
2013-01-31 19:23:00,31.5,7.6,29.54,SW,225,4.5,6.9,36,0.00,,,0.93,pywws,2013-02-01 00:23:00,
2013-01-31 19:29:00,31.3,6.8,29.55,West,270,6.0,11.4,35,0.00,,,0.93,pywws,2013-02-01 00:29:00,
2013-01-31 19:35:00,31.1,6.7,29.55,NW,315,3.1,7.6,35,0.00,,,0.93,pywws,2013-02-01 00:35:00,
2013-01-31 19:40:00,30.9,7.7,29.56,West,270,3.1,6.0,37,0.00,,,0.93,pywws,2013-02-01 00:40:00,
2013-01-31 19:46:00,30.9,7.1,29.56,East,90,3.8,6.0,36,0.00,,,0.93,pywws,2013-02-01 00:46:00,
2013-01-31 19:51:00,30.7,7.0,29.55,West,270,3.8,8.3,36,0.00,,,0.93,pywws,2013-02-01 00:51:00,
2013-01-31 19:57:00,30.7,7.0,29.56,NE,45,6.0,9.8,36,0.00,,,0.93,pywws,2013-02-01 00:57:00,
2013-01-31 20:03:00,30.7,7.0,29.56,NE,45,4.5,8.3,36,0.00,,,0.93,pywws,2013-02-01 01:03:00,
2013-01-31 20:08:00,30.6,7.4,29.57,NW,315,4.5,6.0,37,0.00,,,0.93,pywws,2013-02-01 01:08:00,
2013-01-31 20:14:00,30.4,9.5,29.57,SW,225,6.0,9.2,41,0.00,,,0.93,pywws,2013-02-01 01:14:00,
2013-01-31 20:19:00,30.4,9.5,29.57,SW,225,6.0,9.2,41,0.00,,,0.93,pywws,2013-02-01 01:19:00,
2013-01-31 20:25:00,30.0,10.3,29.57,SW,225,3.8,4.5,43,0.00,,,0.93,pywws,2013-02-01 01:25:00,
2013-01-31 20:31:00,30.0,10.3,29.57,NW,315,4.5,6.0,43,0.00,,,0.93,pywws,2013-02-01 01:31:00,
2013-01-31 20:36:00,30.0,11.3,29.58,NW,315,5.4,9.8,45,0.00,,,0.93,pywws,2013-02-01 01:36:00,
2013-01-31 20:42:00,29.8,11.1,29.57,SW,225,8.3,13.0,45,0.00,,,0.93,pywws,2013-02-01 01:42:00,
2013-01-31 20:47:00,29.8,11.1,29.58,North,0,3.1,6.0,45,0.00,,,0.93,pywws,2013-02-01 01:47:00,
2013-01-31 20:53:00,29.7,11.4,29.58,West,270,5.4,12.1,46,0.00,,,0.93,pywws,2013-02-01 01:53:00,
2013-01-31 20:59:00,29.7,11.9,29.58,NW,315,4.5,7.6,47,0.00,,,0.93,pywws,2013-02-01 01:59:00,
2013-01-31 21:04:00,29.5,12.2,29.58,NE,45,4.5,8.3,48,0.00,,,0.93,pywws,2013-02-01 02:04:00,
2013-01-31 21:10:00,29.3,12.1,29.58,East,90,4.5,8.3,48,0.00,,,0.93,pywws,2013-02-01 02:10:00,
2013-01-31 21:15:00,29.1,12.8,29.58,West,270,2.2,6.0,50,0.00,,,0.93,pywws,2013-02-01 02:15:00,
2013-01-31 21:21:00,28.9,12.7,29.58,South,180,6.9,11.4,50,0.00,,,0.93,pywws,2013-02-01 02:21:00,
2013-01-31 21:27:00,28.9,13.1,29.59,NW,315,3.8,5.4,51,0.00,,,0.93,pywws,2013-02-01 02:27:00,
2013-01-31 21:32:00,28.8,13.4,29.59,South,180,3.8,6.0,52,0.00,,,0.93,pywws,2013-02-01 02:32:00,
2013-01-31 21:38:00,28.6,13.6,29.60,SW,225,3.8,6.9,53,0.00,,,0.93,pywws,2013-02-01 02:38:00,
2013-01-31 21:43:00,28.6,14.1,29.60,NE,45,3.1,5.4,54,0.00,,,0.93,pywws,2013-02-01 02:43:00,
2013-01-31 21:49:00,28.6,13.6,29.59,SW,225,5.4,9.2,53,0.00,,,0.93,pywws,2013-02-01 02:49:00,
2013-01-31 21:55:00,28.4,12.6,29.60,West,270,4.5,6.0,51,0.00,,,0.93,pywws,2013-02-01 02:55:00,
2013-01-31 22:00:00,28.2,9.1,29.60,North,0,3.1,6.9,44,0.00,,,0.93,pywws,2013-02-01 03:00:00,
2013-01-31 22:06:00,28.0,8.5,29.60,West,270,3.8,4.5,43,0.00,,,0.93,pywws,2013-02-01 03:06:00,
2013-01-31 22:11:00,27.9,8.3,29.60,North,0,6.0,9.8,43,0.00,,,0.93,pywws,2013-02-01 03:11:00,
2013-01-31 22:17:00,27.9,7.8,29.60,West,270,6.0,9.8,42,0.00,,,0.93,pywws,2013-02-01 03:17:00,
2013-01-31 22:23:00,27.7,7.1,29.60,ENE,68,4.5,7.6,41,0.00,,,0.93,pywws,2013-02-01 03:23:00,
2013-01-31 22:28:00,27.5,7.5,29.60,SW,225,6.0,11.4,42,0.00,,,0.93,pywws,2013-02-01 03:28:00,
2013-01-31 22:34:00,27.5,6.9,29.60,North,0,3.8,6.9,41,0.00,,,0.93,pywws,2013-02-01 03:34:00,
2013-01-31 22:39:00,27.3,6.2,29.60,SE,135,3.8,6.0,40,0.00,,,0.93,pywws,2013-02-01 03:39:00,
2013-01-31 22:45:00,27.3,6.8,29.60,North,0,6.0,9.8,41,0.00,,,0.93,pywws,2013-02-01 03:45:00,
2013-01-31 22:51:00,27.3,6.8,29.61,NW,315,6.0,12.1,41,0.00,,,0.93,pywws,2013-02-01 03:51:00,
2013-01-31 22:56:00,27.1,6.1,29.61,NW,315,4.5,6.0,40,0.00,,,0.93,pywws,2013-02-01 03:56:00,
2013-01-31 23:02:00,27.1,5.5,29.61,North,0,4.5,7.6,39,0.00,,,0.93,pywws,2013-02-01 04:02:00,
2013-01-31 23:07:00,27.1,6.6,29.61,West,270,5.4,8.3,41,0.00,,,0.93,pywws,2013-02-01 04:07:00,
2013-01-31 23:13:00,26.8,4.0,29.61,SW,225,9.2,14.5,37,0.00,,,0.93,pywws,2013-02-01 04:13:00,
2013-01-31 23:19:00,27.1,4.9,29.62,NW,315,3.8,5.4,38,0.00,,,0.93,pywws,2013-02-01 04:19:00,
2013-01-31 23:24:00,26.8,2.8,29.62,South,180,6.0,9.8,35,0.00,,,0.93,pywws,2013-02-01 04:24:00,
2013-01-31 23:30:00,26.8,2.8,29.62,North,0,4.5,10.7,35,0.00,,,0.93,pywws,2013-02-01 04:30:00,
2013-01-31 23:35:00,26.6,5.0,29.62,North,0,4.5,7.6,39,0.00,,,0.93,pywws,2013-02-01 04:35:00,
2013-01-31 23:41:00,26.6,5.0,29.62,West,270,6.0,10.7,39,0.00,,,0.93,pywws,2013-02-01 04:41:00,
2013-01-31 23:47:00,26.4,6.5,29.62,West,270,6.9,11.4,42,0.00,,,0.93,pywws,2013-02-01 04:47:00,
2013-01-31 23:52:00,26.4,5.4,29.62,West,270,3.8,6.0,40,0.00,,,0.93,pywws,2013-02-01 04:52:00,
2013-01-31 23:58:00,26.4,5.4,29.62,North,0,3.1,4.5,40,0.00,,,0.93,pywws,2013-02-01 04:58:00,